Wind_Speed
27 25 25 25 26 26 27 27 27 24 23 22 22 23 23 23 23 22 21 20 20 20 21 21 20 19 20 20 20 20 20 20 20 20 20 21 21 21 21 21 21 22 22 21
28 26 25 26 26 26 27 27 27 25 24 23 23 23 24 24 24 23 22 22 21 21 20 20 20 19 20 20 20 20 20 20 19 19 19 19 20 19 20 21 21 21 21 20
27 27 27 26 25 26 26 27 27 26 24 24 25 23 24 25 25 24 23 23 22 22 21 21 21 20 20 20 20 20 20 20 20 19 19 20 20 19 19 19 19 19 20 21
26 27 28 25 25 25 25 25 27 26 26 25 25 25 25 25 25 24 24 24 23 23 22 22 21 21 20 20 21 21 21 20 20 19 19 19 19 19 19 19 19 19 19 20
26 27 28 27 26 26 27 27 27 26 25 25 25 26 26 25 24 24 24 24 23 22 22 22 21 21 21 20 21 21 21 20 19 18 18 18 18 19 19 19 20 20 20 20
27 27 28 27 27 27 28 28 26 25 25 25 25 25 25 25 25 25 24 23 22 22 22 21 21 21 20 20 20 20 20 19 19 19 18 18 19 19 20 20 20 20 21 20
26 27 27 27 28 28 28 27 26 25 25 25 25 24 25 25 25 25 24 23 23 22 21 21 21 20 20 20 20 20 20 19 19 19 19 19 19 19 19 20 20 20 20 20
26 27 26 26 27 28 27 26 26 25 24 25 25 24 25 25 25 25 25 24 24 23 22 22 21 21 20 20 20 19 19 19 19 19 19 19 19 19 19 19 19 19 19 19
25 26 25 26 26 26 25 25 24 24 24 24 23 23 24 24 25 26 26 25 25 25 25 24 23 22 22 21 21 20 19 19 19 19 19 19 18 18 19 19 19 19 19 19
23 24 25 25 25 25 24 23 24 24 24 24 24 24 24 24 26 26 26 26 26 26 26 25 24 22 22 21 21 21 19 19 19 19 19 19 19 19 19 19 18 18 18 18
22 23 25 25 25 24 24 24 24 24 24 24 24 24 25 26 25 26 26 26 26 24 24 24 24 22 22 22 21 21 20 20 20 19 19 19 20 19 19 19 18 18 18 18
22 23 24 24 25 24 24 24 24 24 23 24 24 24 24 25 25 26 26 25 25 24 24 24 23 23 23 22 22 21 21 21 20 20 20 20 20 21 20 19 19 19 19 19
21 23 24 24 24 24 23 23 23 23 24 25 24 24 23 23 24 25 25 25 25 24 24 24 24 23 23 23 23 23 22 21 20 20 20 20 20 20 20 18 19 19 19 19
20 22 23 23 23 22 22 23 23 24 24 24 24 23 23 24 24 25 24 24 25 25 25 25 24 24 23 23 22 22 22 22 21 20 20 20 20 20 20 19 19 19 20 20
18 20 21 22 22 22 22 23 22 22 22 22 22 22 21 21 21 22 22 22 23 24 24 24 25 24 24 24 24 23 22 22 22 21 21 21 21 21 20 20 20 20 20 20
17 18 18 20 21 21 21 21 20 20 20 21 20 19 20 19 20 20 21 22 23 24 23 24 24 24 25 25 25 24 23 23 23 22 22 21 21 22 21 21 21 21 21 21
16 16 16 17 19 19 19 19 19 19 19 19 18 17 18 18 18 19 20 21 22 23 24 24 25 25 25 26 26 25 25 24 24 24 23 23 23 23 23 23 23 22 22 22
14 14 14 15 16 16 17 18 18 18 18 17 17 17 16 17 17 18 19 20 21 22 23 24 25 25 25 25 25 25 25 25 25 25 24 24 24 24 24 23 23 23 23 23
12 12 13 13 14 15 16 17 18 18 19 18 17 17 17 17 17 18 19 19 20 21 22 23 23 24 24 25 25 25 25 26 25 26 26 25 25 25 25 24 24 25 25 25
12 12 12 12 13 13 14 15 16 16 17 17 17 17 17 17 17 18 19 19 19 20 21 22 23 23 24 25 26 26 26 26 26 25 25 25 25 25 25 25 25 25 25 25
11 11 11 11 12 13 14 15 16 16 16 16 17 17 17 18 18 18 19 19 20 21 21 22 23 24 25 26 26 27 27 27 26 26 27 26 25 26 26 26 26 25 25 25
11 11 11 12 13 14 15 16 16 16 17 17 18 18 19 19 19 20 20 20 20 21 22 23 23 24 24 25 25 26 27 27 28 28 28 28 27 26 26 26 26 26 26 25
12 12 13 14 14 15 15 15 15 16 17 18 18 19 20 20 21 21 21 21 22 22 22 22 23 24 25 26 27 27 28 27 27 28 28 28 28 28 28 27 27 27 26 26
12 13 14 15 16 16 16 16 17 17 18 18 19 20 20 20 20 20 20 21 21 22 22 22 23 23 24 25 26 27 27 27 27 27 27 28 28 28 27 27 27 28 28 27
12 13 14 15 16 16 16 16 17 18 18 18 18 19 19 18 18 19 20 20 21 22 22 22 23 23 24 24 24 24 25 26 26 27 28 28 28 28 28 27 27 27 27 27
12 12 13 14 15 16 16 16 17 17 17 17 16 16 17 17 18 19 20 21 21 21 22 22 22 23 23 24 24 25 25 26 27 27 28 28 28 29 29 28 28 27 27 26
13 13 13 14 14 15 15 15 16 16 16 16 16 17 17 18 19 19 20 21 21 21 21 21 21 22 23 23 24 25 26 26 26 27 27 28 28 28 28 27 27 26 26 26
Wind_Direction
246 246 243 242 242 246 249 251 255 258 260 262 264 264 262 262 264 267 265 264 264 265 266 265 267 269 268 269 270 271 274 276 277 275 271 268 268 266 262 261 262 267 271 275
247 246 246 245 244 248 251 253 256 258 261 262 264 264 262 262 265 267 263 263 264 264 265 264 264 265 267 270 270 272 274 274 277 275 271 271 270 269 267 264 264 267 270 273
249 249 249 249 250 252 253 254 256 258 260 262 262 263 264 264 264 263 263 267 268 266 264 264 264 265 267 268 267 269 271 273 273 273 273 273 272 271 269 268 267 269 271 271
251 251 253 254 254 253 252 253 256 258 259 261 262 263 264 263 263 263 263 266 267 264 263 262 262 264 264 264 265 266 270 272 272 272 273 273 273 272 270 269 268 268 271 272
251 253 253 254 256 256 255 255 257 257 259 262 262 262 263 262 260 261 262 264 264 262 260 260 261 262 260 261 265 267 269 271 273 274 272 270 271 272 271 272 271 271 271 274
250 252 253 254 256 257 258 259 258 257 258 260 260 261 263 261 258 259 261 261 260 259 259 260 262 261 258 261 264 267 269 270 273 274 272 270 270 272 273 272 273 273 275 276
250 252 253 254 255 257 258 259 259 259 258 258 259 260 262 260 257 258 259 259 258 259 259 260 261 258 257 259 263 266 267 268 270 270 269 269 270 272 274 274 274 274 276 278
250 250 253 254 254 256 258 257 258 257 257 257 258 258 259 258 258 259 259 258 257 257 257 256 255 256 258 260 262 265 266 266 267 268 267 269 272 273 275 277 276 275 276 280
251 250 253 253 255 255 256 256 256 256 255 255 256 257 258 258 256 257 256 257 257 257 257 255 255 255 256 259 260 261 264 265 265 267 267 270 272 275 278 278 278 277 277 280
250 249 252 253 253 252 253 255 255 254 254 255 256 255 257 260 257 256 256 256 257 257 255 255 255 254 254 257 259 260 261 263 265 266 267 269 272 276 278 279 279 280 279 281
250 249 251 252 252 252 251 254 255 253 254 256 257 258 259 260 255 256 257 256 257 254 253 254 253 252 252 253 256 259 261 261 263 266 268 269 271 273 275 275 277 278 278 281
251 249 249 248 249 250 251 252 254 255 255 256 260 261 261 260 258 257 255 255 256 253 252 252 252 252 251 251 253 255 259 261 263 266 267 268 270 271 272 273 275 277 278 280
251 247 247 248 249 251 253 255 255 256 257 258 260 262 263 261 257 256 254 253 251 250 251 252 252 251 250 251 254 255 257 261 262 265 266 269 271 272 274 275 276 276 277 279
254 250 247 248 250 251 253 255 256 257 258 259 260 263 263 262 259 256 253 251 251 250 250 251 251 250 251 252 254 254 255 258 261 264 266 268 270 271 273 274 273 274 276 277
256 252 247 246 250 251 251 253 255 257 258 259 259 262 264 264 260 256 254 253 250 249 250 250 250 249 251 253 254 255 256 258 260 263 265 266 268 269 272 273 274 274 275 276
254 253 249 248 249 251 252 252 257 260 262 261 261 262 261 261 259 254 252 252 250 250 250 250 250 250 253 254 255 255 256 259 261 263 263 265 267 269 272 274 275 275 276 278
254 254 253 252 251 250 250 253 257 261 262 259 256 258 260 260 260 255 252 252 253 251 251 252 252 252 253 255 255 255 257 258 260 262 264 266 269 269 271 273 274 275 277 279
256 253 253 254 251 248 251 254 257 259 259 258 257 259 261 260 259 259 256 254 255 254 253 253 253 252 253 254 255 256 258 260 262 264 266 267 269 271 271 272 274 275 276 278
253 250 252 255 253 251 253 254 257 261 262 261 261 258 257 260 261 259 259 258 257 257 255 253 252 253 253 253 254 257 259 262 264 265 266 268 268 270 271 270 272 274 276 278
248 249 253 257 258 258 258 258 257 260 262 261 260 261 260 262 264 263 262 260 259 258 257 255 254 254 254 254 255 256 258 261 263 265 266 266 267 269 270 271 272 273 275 278
251 250 252 260 263 264 263 263 262 261 262 263 262 263 265 267 267 267 264 263 261 260 258 256 255 256 256 257 257 256 257 260 262 264 265 267 268 269 270 271 271 272 274 276
258 258 259 265 269 270 269 270 270 266 265 266 264 265 266 267 269 269 267 264 262 261 260 258 257 257 256 257 259 259 259 261 262 264 266 266 268 269 270 270 271 271 273 274
262 263 264 266 269 272 273 273 274 274 271 270 271 270 269 269 270 268 265 265 264 264 264 262 260 259 259 258 259 260 260 261 262 264 265 266 267 269 270 270 270 271 272 274
268 267 267 268 269 271 272 274 276 278 278 276 274 273 272 271 268 266 266 266 266 266 266 266 265 263 261 261 262 261 261 261 263 264 265 267 268 269 270 271 271 271 271 272
275 273 272 271 272 272 273 274 276 277 279 278 276 275 273 271 269 268 268 268 268 268 269 269 267 264 263 263 263 262 262 263 265 267 268 269 268 269 269 271 272 272 273 272
279 278 279 279 279 278 277 278 279 279 279 279 277 275 275 274 272 272 271 271 270 269 269 269 267 265 263 263 263 263 263 265 266 267 268 269 269 269 269 270 270 270 270 272
283 283 284 284 284 284 283 283 282 281 281 279 279 280 279 277 275 274 275 275 272 271 271 270 268 268 266 264 264 264 265 265 267 267 267 268 269 269 269 269 269 268 268 271
Height
5743 5745 5748 5750 5752 5754 5755 5757 5759 5761 5762 5764 5764 5765 5766 5767 5768 5769 5770 5771 5771 5771 5771 5771 5772 5772 5773 5773 5773 5773 5773 5773 5773 5773 5773 5773 5773 5774 5774 5775 5775 5776 5776 5776
5737 5739 5741 5743 5746 5748 5750 5751 5753 5755 5757 5758 5758 5759 5760 5761 5763 5764 5765 5765 5766 5766 5766 5766 5767 5767 5767 5768 5768 5768 5768 5768 5768 5767 5767 5767 5768 5768 5768 5769 5769 5770 5770 5770
5731 5733 5734 5737 5741 5742 5744 5745 5747 5749 5751 5752 5753 5754 5755 5756 5757 5758 5759 5760 5760 5760 5761 5761 5761 5762 5762 5763 5763 5763 5763 5763 5762 5762 5761 5761 5762 5762 5763 5763 5763 5764 5764 5764
5724 5727 5728 5733 5734 5736 5738 5739 5740 5742 5744 5745 5747 5748 5749 5750 5751 5752 5753 5754 5754 5754 5755 5755 5756 5756 5756 5757 5757 5757 5757 5757 5756 5756 5755 5755 5756 5756 5757 5757 5758 5758 5758 5758
5717 5719 5721 5725 5727 5729 5731 5733 5734 5736 5737 5739 5740 5741 5742 5743 5745 5746 5747 5748 5748 5748 5749 5749 5750 5750 5750 5751 5751 5751 5752 5752 5751 5750 5750 5750 5750 5751 5751 5752 5752 5752 5752 5751
5710 5712 5715 5719 5721 5722 5725 5726 5728 5729 5730 5732 5733 5735 5736 5737 5738 5739 5740 5741 5742 5742 5743 5743 5743 5744 5745 5745 5746 5746 5746 5746 5746 5745 5745 5745 5745 5745 5746 5746 5746 5746 5745 5745
5703 5705 5708 5711 5713 5715 5718 5720 5721 5722 5723 5725 5726 5728 5729 5730 5731 5732 5733 5734 5735 5736 5736 5737 5738 5738 5739 5739 5740 5740 5740 5740 5740 5740 5740 5740 5740 5740 5740 5740 5740 5740 5739 5739
5697 5699 5703 5704 5705 5708 5710 5711 5713 5715 5716 5718 5719 5720 5721 5723 5724 5725 5726 5727 5728 5729 5730 5731 5731 5732 5733 5734 5734 5734 5734 5734 5734 5734 5735 5735 5735 5734 5734 5734 5734 5733 5733 5732
5691 5694 5695 5696 5698 5700 5702 5704 5706 5707 5709 5711 5712 5713 5714 5715 5716 5717 5718 5720 5721 5722 5723 5724 5725 5726 5727 5727 5728 5728 5728 5728 5729 5729 5729 5729 5729 5729 5728 5728 5727 5727 5726 5726
5683 5686 5688 5690 5691 5693 5695 5697 5699 5700 5702 5704 5705 5706 5707 5708 5709 5710 5711 5712 5714 5715 5716 5717 5718 5718 5720 5720 5721 5722 5722 5723 5723 5723 5723 5723 5723 5723 5722 5722 5721 5721 5720 5720
5676 5679 5681 5683 5685 5687 5689 5690 5692 5693 5695 5697 5698 5699 5700 5701 5702 5702 5704 5705 5706 5708 5709 5710 5711 5712 5713 5714 5715 5716 5716 5717 5717 5717 5717 5717 5717 5717 5717 5716 5715 5715 5715 5714
5670 5672 5674 5676 5678 5680 5682 5684 5685 5687 5688 5690 5690 5691 5692 5693 5694 5695 5696 5698 5699 5700 5702 5703 5704 5705 5706 5707 5708 5709 5710 5710 5711 5711 5712 5711 5711 5711 5710 5710 5710 5709 5709 5709
5663 5665 5667 5670 5672 5674 5675 5677 5679 5680 5681 5683 5684 5684 5685 5686 5686 5688 5688 5690 5691 5693 5695 5696 5697 5698 5699 5700 5702 5702 5703 5704 5704 5705 5705 5705 5705 5705 5704 5704 5704 5703 5703 5702
5657 5659 5661 5663 5665 5667 5669 5671 5672 5673 5674 5675 5676 5677 5677 5678 5679 5680 5681 5682 5684 5685 5687 5689 5690 5692 5693 5694 5695 5696 5697 5697 5698 5699 5699 5699 5699 5699 5698 5698 5698 5697 5697 5696
5651 5653 5655 5657 5659 5661 5662 5664 5665 5667 5667 5668 5669 5670 5670 5671 5671 5672 5673 5674 5675 5677 5679 5681 5683 5684 5686 5687 5688 5689 5690 5691 5692 5692 5692 5693 5693 5693 5692 5692 5692 5691 5691 5690
5647 5649 5650 5652 5654 5655 5656 5658 5659 5660 5661 5661 5662 5663 5663 5664 5664 5665 5666 5666 5668 5670 5671 5673 5675 5677 5679 5680 5681 5683 5684 5684 5685 5685 5685 5686 5686 5686 5686 5686 5685 5685 5684 5684
5643 5644 5646 5647 5648 5649 5651 5652 5653 5654 5654 5655 5656 5656 5657 5657 5658 5658 5659 5659 5660 5662 5664 5666 5668 5669 5671 5673 5674 5675 5676 5677 5678 5678 5678 5679 5678 5679 5679 5679 5678 5678 5678 5677
5639 5640 5641 5642 5643 5644 5645 5646 5647 5648 5649 5649 5650 5650 5651 5651 5652 5652 5653 5653 5654 5655 5657 5658 5660 5662 5663 5665 5666 5668 5668 5669 5670 5670 5671 5671 5671 5671 5671 5671 5671 5671 5670 5669
5635 5636 5637 5638 5638 5639 5640 5641 5642 5642 5643 5644 5644 5644 5645 5645 5646 5646 5647 5647 5648 5649 5650 5651 5652 5654 5655 5657 5658 5660 5660 5661 5662 5662 5663 5663 5663 5663 5663 5663 5663 5663 5662 5662
5632 5633 5633 5634 5634 5635 5636 5636 5637 5637 5638 5638 5638 5639 5639 5639 5640 5640 5640 5641 5641 5642 5643 5644 5645 5646 5648 5649 5650 5651 5652 5653 5654 5654 5654 5655 5655 5655 5655 5655 5655 5655 5654 5653
5628 5629 5629 5630 5631 5631 5631 5632 5632 5632 5633 5633 5633 5633 5633 5633 5634 5634 5634 5635 5635 5635 5636 5637 5637 5638 5639 5640 5641 5643 5643 5644 5645 5646 5646 5646 5647 5647 5647 5647 5647 5646 5646 5645
5625 5625 5626 5626 5627 5627 5627 5627 5627 5627 5627 5627 5627 5627 5627 5627 5627 5627 5628 5628 5628 5628 5628 5629 5630 5630 5631 5632 5633 5634 5635 5636 5636 5637 5637 5638 5638 5638 5638 5638 5638 5638 5638 5637
5621 5621 5622 5622 5622 5623 5622 5622 5622 5621 5621 5621 5621 5621 5621 5620 5620 5620 5621 5621 5621 5621 5621 5621 5621 5622 5623 5623 5624 5625 5626 5627 5627 5628 5628 5629 5629 5630 5630 5630 5629 5629 5629 5629
5617 5617 5617 5617 5617 5617 5617 5617 5616 5616 5615 5615 5614 5614 5613 5613 5613 5613 5613 5613 5613 5613 5613 5613 5613 5613 5614 5615 5615 5616 5617 5618 5618 5619 5619 5620 5620 5621 5621 5621 5621 5620 5620 5620
5613 5613 5613 5613 5612 5612 5611 5611 5611 5610 5610 5609 5608 5607 5606 5606 5606 5606 5606 5606 5606 5605 5605 5605 5605 5605 5606 5606 5607 5607 5608 5609 5609 5610 5611 5611 5611 5611 5611 5611 5611 5611 5611 5611
5609 5609 5608 5608 5607 5606 5606 5605 5605 5604 5603 5603 5602 5601 5601 5600 5599 5599 5599 5598 5598 5598 5597 5597 5596 5597 5597 5598 5599 5599 5600 5600 5600 5601 5601 5601 5601 5602 5602 5602 5602 5602 5602 5602
5605 5604 5604 5603 5602 5601 5601 5600 5599 5599 5598 5597 5597 5596 5595 5594 5593 5592 5592 5591 5590 5590 5589 5589 5589 5589 5589 5589 5590 5590 5590 5591 5591 5591 5591 5592 5592 5592 5593 5593 5593 5593 5593 5593